Погода в Мирасеме

Бразилия     21°24′50″S   42°11′45″W
темп.,
°C
ветер,
м/с
пор.,
м/с
влажн.,
%
обл.,
%
осадки,
мм/ч
давл.,
гПа
погр.,
м
27 февраля, сб
сб2700:00+21з1196100 0.4 101526
03:00+20зсз0196100 0.4 101423
06:00+20с0097100 0.0 101523
09:00+24ююв0087100 0.0 1016402
12:00+27всв1274100 0.0 1016851
15:00+28в2266100 0.0 10131191
18:00+25в2283100 0.2 101438
21:00+22в2395100 4.3 1015102
28 февраля, вс
вс2800:00+22юв2596100 0.9 1015168
03:00+21вюв1197100 0.9 101430
06:00+20вюв119794 0.0 101523
09:00+24в238697 0.0 1016543
12:00+28всв3466100 0.0 10151285
15:00+28в3471100 0.0 10131192
18:00+24в3783100 0.0 1013228
21:00+22юв2489100 0.0 1015115
1 марта, пн
пн100:00+21вюв129689 0.0 101523
03:00+20юз019879 0.0 101423
06:00+20ююв019775 0.0 101436
09:00+25ююв118466 0.0 1015480
12:00+27в2273100 0.0 1015905
15:00+28вюв336985 0.1 10121195
18:00+25в2585100 0.3 1012157
21:00+22вюв239483 0.5 101487
2 марта, вт
вт200:00+21ю1197100 0.0 101523
03:00+20юв0198100 0.0 101423
06:00+20ююз1198100 0.0 101534
09:00+23ююз1190100 0.0 1017275
12:00+29зюз116890 0.1 10161093
15:00+29в116463 0.3 10131325
18:00+25вюв23818 0.2 101333
21:00+22в11924 0.2 101624
3 марта, ср
ср300:00+21юв11963 0.0 101623
03:00+21юз009626 0.0 101523
06:00+21зюз009595 0.0 101625
09:00+23сз019198 0.0 1018166
12:00+29з127166 0.0 1017944
15:00+30ю126076 0.1 10141447
18:00+25ююв238486 0.4 101435
21:00+23в118793 0.4 101624